TimeMST,TemperatureF,Dew PointF,Humidity,Sea Level PressureIn,VisibilityMPH,Wind Direction,Wind SpeedMPH,Gust SpeedMPH,PrecipitationIn,Events,Conditions,WindDirDegrees,DateUTC
3:53 AM,64.4,51.8,64,29.81,10.0,ESE,3.5,-,N/A,,Clear,110,2012-10-08 10:53:00
4:41 AM,64.4,51.8,64,29.83,10.0,ESE,4.6,-,N/A,,Clear,110,2012-10-08 11:41:00
5:41 AM,64.4,51.8,64,29.84,10.0,East,3.5,-,N/A,,Clear,100,2012-10-08 12:41:00
6:42 AM,64.4,51.8,64,29.86,12.0,East,2.3,-,N/A,,Clear,90,2012-10-08 13:42:00
7:43 AM,73.4,53.6,50,29.87,12.0,Calm,Calm,-,N/A,,Clear,0,2012-10-08 14:43:00
7:50 AM,71,57,52,29.90,12,NE,4.5,,,,,40,2012-10-08 14:50:00
8:44 AM,82.4,55.4,39,29.88,12.0,SE,6.9,-,N/A,,Clear,130,2012-10-08 15:44:00
9:44 AM,87.8,53.6,31,29.88,10.0,SSE,3.5,-,N/A,,Clear,150,2012-10-08 16:44:00
10:42 AM,93.2,41.0,16,29.87,10.0,ENE,3.5,-,N/A,,Clear,70,2012-10-08 17:42:00
10:50 AM,95,51,14,29.90,12,SE,6.7,,,,,140,2012-10-08 17:50:00
11:45 AM,96.8,37.4,13,29.85,10.0,South,8.1,-,N/A,,Clear,180,2012-10-08 18:45:00
12:42 PM,98.6,33.8,10,29.84,10.0,South,12.7,-,N/A,,Clear,180,2012-10-08 19:42:00
1:41 PM,96.8,33.8,11,29.82,10.0,South,9.2,-,N/A,,Clear,190,2012-10-08 20:41:00
1:50 PM,99,40,7,29.85,12,SSE,13.4,,,,,160,2012-10-08 20:50:00
2:40 PM,96.8,35.6,12,29.81,10.0,SSW,11.5,-,N/A,,Clear,210,2012-10-08 21:40:00
3:41 PM,93.2,39.2,15,29.82,10.0,South,8.1,-,N/A,,Clear,170,2012-10-08 22:41:00
4:40 PM,93.2,44.6,19,29.82,10.0,South,5.8,-,N/A,,Clear,180,2012-10-08 23:40:00
4:50 PM,93,57,20,29.85,12,SSW,13.4,,,,,200,2012-10-08 23:50:00
5:43 PM,87.8,51.8,29,29.82,10.0,SSW,5.8,-,N/A,,Clear,210,2012-10-09 00:43:00
6:42 PM,82.4,60.8,48,29.84,10.0,SSW,5.8,-,N/A,,Clear,200,2012-10-09 01:42:00
7:43 PM,78.8,62.6,57,29.85,10.0,SSE,5.8,-,N/A,,Clear,160,2012-10-09 02:43:00